Location: Weatherford
(35.5260°N, 98.7070°W)
Time: 08:57:39
(UTC-05:00)

OPAL - Visible Passes

Search period start: 23 July 2014 00:00
Search period end: 02 August 2014 00:00
Orbit: 744 x 797 km, 100.2° (Epoch: 23 July)

Date Brightness Start Highest point End Pass type
(mag) Time Alt. Az. Time Alt. Az. Time Alt. Az.
23 Jul 8.5 04:14:46 10° SE 04:19:27 44° ENE 04:24:08 10° N visible
23 Jul 8.9 05:55:13 10° SW 05:58:29 18° W 06:01:46 10° NW visible
24 Jul 9.8 03:41:00 10° ESE 03:44:31 20° ENE 03:48:03 10° NNE visible
24 Jul 7.8 05:18:59 13° SSW 05:23:05 41° W 05:27:46 10° NNW visible
25 Jul 7.4 04:43:16 12° SSE 04:47:51 84° ENE 04:52:49 10° NNW visible
26 Jul 8.9 04:08:19 10° SE 04:12:48 36° ENE 04:17:17 10° N visible
26 Jul 8.6 05:47:57 10° SSW 05:51:43 22° W 05:55:31 10° NW visible
27 Jul 10.1 03:34:56 10° E 03:37:55 16° ENE 03:40:55 10° NNE visible
27 Jul 7.6 05:12:07 13° S 05:16:22 51° WSW 05:21:11 10° NNW visible
28 Jul 7.7 04:36:24 11° SSE 04:41:10 67° ENE 04:46:05 10° N visible
29 Jul 9.3 04:01:56 10° SE 04:06:09 29° ENE 04:10:23 10° N visible
29 Jul 8.4 05:40:58 11° SSW 05:44:58 27° W 05:49:08 10° NW visible
30 Jul 10.2 03:29:03 10° E 03:31:20 13° ENE 03:33:37 10° NNE visible
30 Jul 7.4 05:05:14 13° S 05:09:39 64° WSW 05:14:34 10° NNW visible
31 Jul 8.1 04:29:42 10° SSE 04:34:30 54° ENE 04:39:19 10° N visible
31 Jul 9.1 06:11:07 10° SW 06:13:40 14° W 06:16:14 10° WNW visible
01 Aug 9.6 03:55:38 10° ESE 03:59:32 24° ENE 04:03:27 10° NNE visible
01 Aug 8.1 05:34:04 11° SSW 05:38:13 33° W 05:42:41 10° NW visible
